Location: Unspecified
(48.7670°N, 0.0000°E)
Time: 17:46:23
(UTC+00:00)

S-56A Canister/Altair - All Passes

Search period start: 24 June 2019 00:00
Search period end: 04 July 2019 00:00
Orbit: 633 x 2499 km, 38.9° (Epoch: 23 June)

Date Brightness Start Highest point End Pass type
(mag) Time Alt. Az. Time Alt. Az. Time Alt. Az.
24 Jun - 12:33:57 10° SSE 12:36:44 11° SE 12:39:19 10° SE daylight
24 Jun - 14:32:01 10° SSW 14:40:34 27° SSE 14:46:54 10° ESE daylight
24 Jun - 16:36:05 10° WSW 16:44:22 38° S 16:50:08 10° ESE daylight
24 Jun - 18:41:28 10° WSW 18:47:36 30° SSW 18:52:11 10° SE daylight
24 Jun - 20:49:42 10° SW 20:49:53 10° SW 20:50:04 10° SW visible
25 Jun - 12:03:10 10° SE 12:03:51 10° SE 12:04:32 10° SE daylight
25 Jun - 13:58:49 10° SSW 14:07:43 26° SSE 14:14:22 10° ESE daylight
25 Jun - 16:02:42 10° WSW 16:11:39 39° S 16:17:49 10° ESE daylight
25 Jun - 18:08:09 10° WSW 18:15:03 33° SSW 18:20:03 10° SE daylight
25 Jun - 20:14:51 10° WSW 20:17:28 13° SW 20:19:50 10° S daylight
26 Jun - 13:25:38 10° SSW 13:34:48 26° SSE 13:41:47 10° ESE daylight
26 Jun - 15:29:16 10° SW 15:38:51 39° S 15:45:28 10° ESE daylight
26 Jun - 17:34:46 10° WSW 17:42:28 36° SSW 17:47:52 10° SE daylight
26 Jun - 19:41:10 10° WSW 19:45:03 16° SW 19:48:19 10° S daylight
27 Jun - 12:52:30 10° SSW 13:01:51 25° SSE 13:09:06 10° ESE daylight
27 Jun - 14:55:48 10° SW 15:06:01 40° S 15:13:05 10° ESE daylight
27 Jun - 17:01:19 10° WSW 17:09:48 39° S 17:15:39 10° ESE daylight
27 Jun - 19:07:37 10° WSW 19:12:36 20° SSW 19:16:34 10° SSE daylight
28 Jun - 12:19:26 10° SSW 12:28:50 23° SSE 12:36:20 10° ESE daylight
28 Jun - 14:22:19 10° SW 14:33:07 39° SSE 14:40:39 10° ESE daylight
28 Jun - 16:27:49 10° WSW 16:37:06 42° S 16:43:25 10° ESE daylight
28 Jun - 18:34:05 10° W 18:40:06 24° SSW 18:44:41 10° SSE daylight
29 Jun - 11:46:28 10° S 11:55:49 22° SSE 12:03:27 10° ESE daylight
29 Jun - 13:48:51 10° SW 14:00:08 39° SSE 14:08:09 10° E daylight
29 Jun - 15:54:15 10° WSW 16:04:18 44° S 16:11:07 10° ESE daylight
29 Jun - 18:00:33 10° W 18:07:34 28° SSW 18:12:42 10° SSE daylight
30 Jun - 11:13:37 10° S 11:22:46 21° SE 11:30:27 10° ESE daylight
30 Jun - 13:15:24 10° SW 13:27:06 39° SSE 13:35:36 10° E daylight
30 Jun - 15:20:40 10° WSW 15:31:28 46° S 15:38:46 10° ESE daylight
30 Jun - 17:26:59 10° W 17:34:58 32° SSW 17:40:39 10° SE daylight
01 Jul - 10:40:55 10° S 10:49:41 19° SE 10:57:17 10° ESE daylight
01 Jul - 12:42:00 10° SW 12:54:01 38° SSE 13:02:59 10° E daylight
01 Jul - 14:47:03 10° WSW 14:58:32 48° S 15:06:23 10° ESE daylight
01 Jul - 16:53:23 10° W 17:02:19 36° SSW 17:08:31 10° SE daylight
01 Jul - 19:01:27 10° WSW 19:04:38 13° SW 19:07:24 10° SSW daylight
02 Jul - 10:08:24 10° S 10:16:36 18° SE 10:23:56 10° ESE daylight
02 Jul - 12:08:39 10° SW 12:20:53 37° SSE 12:30:17 10° E daylight
02 Jul - 14:13:25 10° WSW 14:25:32 48° S 14:33:56 10° ESE daylight
02 Jul - 16:19:44 10° W 16:29:34 40° SSW 16:36:20 10° SE daylight
02 Jul - 18:27:16 10° WSW 18:32:09 17° SW 18:36:10 10° S daylight
03 Jul - 09:36:08 10° SSE 09:43:32 16° SE 09:50:19 10° ESE daylight
03 Jul - 11:35:22 10° SSW 11:47:43 35° SSE 11:57:30 10° E daylight
03 Jul - 13:39:48 10° WSW 13:52:28 49° S 14:01:26 10° ESE daylight
03 Jul - 15:46:04 10° W 15:56:46 43° SSW 16:04:05 10° SE daylight
03 Jul - 17:53:19 10° W 17:59:38 20° SW 18:04:32 10° S daylight
